map of QIE home
Great Circle Mapper logo
QIE - Airport
Location
City:  Istres, Provence-Alpes-Côte d'Azur, France
Name:Istres-Le Tubé AB
ICAO:LFMI
IATA:QIE

Details
Type:Airport (Aerodrome, Airfield)
Use:Military
Latitude:43°31'21"N (43.522394)
Longitude:4°55'27"E (4.924236)
Elevation:82 ft (25 m)
Variation:1.30°E (WMM2015 magnetic declination)
0.12° annual change
Runways:1
Longest:12303 × 197 ft (3750 × 60 m)

Time
Time Zone:UTC+1 (DST+2)
Local Time:

Weather
METAR:LFMI 300430Z AUTO 04003KT 9999 FEW001 BKN190 BKN210 07/04 Q1016 NOSIG
TAF:LFMI 300200Z 3003/0103 VRB05KT CAVOK
TEMPO 3006/3012 -RA BKN040
BECMG 3012/3015 30010KT
BECMG 3018/3021 30015G25KT

Related Locations
Nearby:
Farthest:CHT: 12368 mi / 19904 km
Waitangi [Tuuta], Chatham Islands, NZ

Find:

   beyond  
but within

Other Information
Maps:
NOTAMs:
Links:
Sources:

  
flag of France
flag of Provence-Alpes-Côte d'Azur
  

Airport Diagram

Airport diagram for QIE

Airport diagram (OBSOLETE) from NGA

Sectional Chart

Flight Planning
at skyvector.com

Satellite Image

Google Maps Satellite view

 

Copyright © 2004-2016 Karl L. Swartz. All rights reserved.
The Great Circle Mapper name and logo are trademarks of the Great Circle Mapper.
All other trademarks mentioned herein belong to their respective owners.
Please see credits for attibutions and further copyright information.

  Follow gcmap on Facebook Follow gcmap on Twitter Follow gcmap on Google+ GCmap on LinkedIn

hCard Microformat

Geo Microformat